User: anonymous   Login
Location: Unspecified
(0.0000°N, 0.0000°E)
Time: 16:42:36
(UTC+00:00)
Language:

USA 67 - Orbit

View from above orbital plane
View from above orbital plane
View from above satellite
View from above satellite

Ground track
Ground track

The orbit data is extracted from the following two-line orbital elements,

1 20963U 90097B   16345.74955787 0.00000000  00000-0  00000-0 0    09
2 20963  16.6555   6.2060 0018974 198.6915 161.2508  0.98579602    01
Epoch (UTC): 10 December 2016 17:59:21
Eccentricity: 0.0018974
inclination: 16.6555°
perigee height: 36186 km
apogee height: 36348 km
right ascension of ascending node: 6.2060°
argument of perigee: 198.6915°
revolutions per day: 0.98579602
mean anomaly at epoch: 161.2508°
orbit number at epoch: 0

The dashed part of the orbit path shows where the satellite is in the earth's shadow,  

DLR